7 * 24
多渠道服务支持
STARLINK-33535 是 SpaceX Starlink 卫星互联网项目中的一颗低轨卫星,属于其第二代卫星星座计划的一部分。该卫星由 SpaceX 研发并发射,旨在为全球用户提供高速、低延迟的宽带互联网服务。它运行在约 550 公里的轨道高度,配备先进通信设备,支持更广覆盖和更高容量。Starlink 项目致力于改善偏远地区网络接入,推动全球数字连接。
美国
(US)
| 数据来源 | 国际轨道数据 |
| 星历时间: | 2025-11-07T02:50:32+0800 1天前 查看轨道信息 |
| 半长轴: | 6860.97km |
| 偏心率: | 0.0001619 |
| 轨道倾角: | 43.002° |
| 近地点辐角 | 271.999° |
| 升交点赤经 | 81.074° |
| 平近点角 | 88.068° |
| 近地点: | 481.724km |
| 远地点: | 483.946km |
| 周期: | 94.262分钟 |
| 每日圈数: | 15.276522 |